Time,TemperatureF,DewpointF,PressureIn,WindDirection,WindDirectionDegrees,WindSpeedMPH,WindSpeedGustMPH,Humidity,HourlyPrecipIn,Conditions,Clouds,dailyrainin,SoftwareType,DateUTC
2013-06-14 00:02:00,71.0,58.6,29.58,North,360,9.0,9.0,65,0.00,,,0.00,Wunderground v.1.15,2013-06-14 04:02:00,
2013-06-14 00:08:00,71.0,58.6,29.58,North,360,9.0,15.0,65,0.00,,,0.00,Wunderground v.1.15,2013-06-14 04:08:00,
2013-06-14 00:12:00,70.8,58.4,29.57,North,360,10.0,12.0,65,0.00,,,0.00,Wunderground v.1.15,2013-06-14 04:12:00,
2013-06-14 00:14:00,70.8,58.4,29.57,North,360,10.0,12.0,65,0.00,,,0.00,Wunderground v.1.15,2013-06-14 04:14:00,
2013-06-14 00:16:00,70.9,58.5,29.57,North,360,10.0,12.0,65,0.00,,,0.00,Wunderground v.1.15,2013-06-14 04:16:00,
2013-06-14 00:22:00,71.0,58.6,29.57,North,360,9.0,18.0,65,0.00,,,0.00,Wunderground v.1.15,2013-06-14 04:22:00,
2013-06-14 00:24:00,70.9,58.1,29.57,North,360,10.0,18.0,64,0.00,,,0.00,Wunderground v.1.15,2013-06-14 04:24:00,
2013-06-14 00:28:00,70.7,58.4,29.57,North,360,9.0,18.0,65,0.00,,,0.00,Wunderground v.1.15,2013-06-14 04:28:00,
2013-06-14 00:30:00,70.7,58.4,29.57,North,360,9.0,9.0,65,0.00,,,0.00,Wunderground v.1.15,2013-06-14 04:30:00,
2013-06-14 00:32:00,70.8,58.4,29.57,North,360,10.0,10.0,65,0.00,,,0.00,Wunderground v.1.15,2013-06-14 04:32:00,
2013-06-14 00:36:00,70.6,58.3,29.57,North,360,10.0,10.0,65,0.00,,,0.00,Wunderground v.1.15,2013-06-14 04:36:00,
2013-06-14 00:38:00,70.6,58.3,29.57,North,360,11.0,11.0,65,0.00,,,0.00,Wunderground v.1.15,2013-06-14 04:38:00,
2013-06-14 00:40:00,70.7,58.4,29.57,North,360,11.0,14.0,65,0.00,,,0.00,Wunderground v.1.15,2013-06-14 04:40:00,
2013-06-14 00:42:00,70.7,58.4,29.57,North,360,12.0,14.0,65,0.00,,,0.00,Wunderground v.1.15,2013-06-14 04:42:00,
2013-06-14 00:46:00,70.7,58.4,29.57,North,360,11.0,14.0,65,0.00,,,0.00,Wunderground v.1.15,2013-06-14 04:46:00,
2013-06-14 00:48:00,70.6,58.3,29.57,North,360,10.0,14.0,65,0.00,,,0.00,Wunderground v.1.15,2013-06-14 04:48:00,
2013-06-14 00:50:00,70.7,58.4,29.58,North,360,9.0,16.0,65,0.00,,,0.00,Wunderground v.1.15,2013-06-14 04:50:00,
2013-06-14 00:52:00,70.8,58.4,29.58,North,360,9.0,16.0,65,0.00,,,0.00,Wunderground v.1.15,2013-06-14 04:52:00,
2013-06-14 00:54:00,70.8,58.4,29.58,North,360,9.0,16.0,65,0.00,,,0.00,Wunderground v.1.15,2013-06-14 04:54:00,
2013-06-14 01:00:00,70.6,58.3,29.58,North,360,10.0,10.0,65,0.00,,,0.00,Wunderground v.1.15,2013-06-14 05:00:00,
2013-06-14 01:04:00,70.4,58.1,29.58,North,360,13.0,22.0,65,0.00,,,0.00,Wunderground v.1.15,2013-06-14 05:04:00,
2013-06-14 01:06:00,70.4,58.1,29.58,North,360,13.0,22.0,65,0.00,,,0.00,Wunderground v.1.15,2013-06-14 05:06:00,
2013-06-14 01:08:00,70.5,58.2,29.58,North,360,13.0,22.0,65,0.00,,,0.00,Wunderground v.1.15,2013-06-14 05:08:00,
2013-06-14 01:10:00,70.6,57.8,29.58,North,360,14.0,14.0,64,0.00,,,0.00,Wunderground v.1.15,2013-06-14 05:10:00,
2013-06-14 01:12:00,70.4,58.1,29.58,North,360,13.0,16.0,65,0.00,,,0.00,Wunderground v.1.15,2013-06-14 05:12:00,
2013-06-14 01:14:00,70.4,58.1,29.58,North,360,13.0,16.0,65,0.00,,,0.00,Wunderground v.1.15,2013-06-14 05:14:00,
2013-06-14 01:18:00,70.5,58.2,29.58,North,360,12.0,16.0,65,0.00,,,0.00,Wunderground v.1.15,2013-06-14 05:18:00,
2013-06-14 01:20:00,70.4,58.1,29.58,North,360,12.0,12.0,65,0.00,,,0.00,Wunderground v.1.15,2013-06-14 05:20:00,
2013-06-14 01:22:00,70.5,58.2,29.59,North,360,11.0,12.0,65,0.00,,,0.00,Wunderground v.1.15,2013-06-14 05:22:00,
2013-06-14 01:24:00,70.4,58.1,29.58,North,360,11.0,13.0,65,0.00,,,0.00,Wunderground v.1.15,2013-06-14 05:24:00,
2013-06-14 01:28:00,70.3,58.0,29.59,North,360,11.0,13.0,65,0.00,,,0.00,Wunderground v.1.15,2013-06-14 05:28:00,
2013-06-14 01:30:00,70.3,58.0,29.59,North,360,11.0,11.0,65,0.00,,,0.00,Wunderground v.1.15,2013-06-14 05:30:00,
2013-06-14 01:32:00,70.4,58.1,29.59,North,360,11.0,11.0,65,0.00,,,0.00,Wunderground v.1.15,2013-06-14 05:32:00,
2013-06-14 01:36:00,70.4,57.6,29.59,North,360,11.0,14.0,64,0.00,,,0.00,Wunderground v.1.15,2013-06-14 05:36:00,
2013-06-14 01:38:00,70.3,58.0,29.59,North,360,12.0,14.0,65,0.00,,,0.00,Wunderground v.1.15,2013-06-14 05:38:00,
2013-06-14 01:40:00,70.2,57.9,29.59,North,360,13.0,13.0,65,0.00,,,0.00,Wunderground v.1.15,2013-06-14 05:40:00,
2013-06-14 01:42:00,70.2,57.9,29.59,North,360,13.0,13.0,65,0.00,,,0.00,Wunderground v.1.15,2013-06-14 05:42:00,
2013-06-14 01:44:00,70.2,57.9,29.59,North,360,13.0,13.0,65,0.00,,,0.00,Wunderground v.1.15,2013-06-14 05:44:00,
2013-06-14 01:48:00,70.2,57.9,29.59,North,360,11.0,13.0,65,0.00,,,0.00,Wunderground v.1.15,2013-06-14 05:48:00,
2013-06-14 01:50:00,70.2,57.9,29.59,North,360,10.0,10.0,65,0.00,,,0.00,Wunderground v.1.15,2013-06-14 05:50:00,
2013-06-14 01:52:00,70.1,57.8,29.59,North,360,11.0,15.0,65,0.00,,,0.00,Wunderground v.1.15,2013-06-14 05:52:00,
2013-06-14 01:54:00,70.0,57.7,29.60,North,360,11.0,21.0,65,0.00,,,0.00,Wunderground v.1.15,2013-06-14 05:54:00,
2013-06-14 01:58:00,69.8,57.5,29.60,North,360,13.0,21.0,65,0.00,,,0.00,Wunderground v.1.15,2013-06-14 05:58:00,
2013-06-14 02:00:00,69.7,57.8,29.60,North,360,14.0,14.0,66,0.00,,,0.00,Wunderground v.1.15,2013-06-14 06:00:00,
2013-06-14 02:04:00,69.7,57.8,29.60,North,360,14.0,15.0,66,0.00,,,0.00,Wunderground v.1.15,2013-06-14 06:04:00,
2013-06-14 02:06:00,69.7,57.8,29.60,North,360,14.0,15.0,66,0.00,,,0.00,Wunderground v.1.15,2013-06-14 06:06:00,
2013-06-14 02:10:00,69.6,57.3,29.60,North,360,13.0,13.0,65,0.00,,,0.00,Wunderground v.1.15,2013-06-14 06:10:00,
2013-06-14 02:12:00,69.5,57.6,29.61,North,360,12.0,14.0,66,0.00,,,0.00,Wunderground v.1.15,2013-06-14 06:12:00,
2013-06-14 02:16:00,69.6,57.7,29.60,North,360,12.0,14.0,66,0.00,,,0.00,Wunderground v.1.15,2013-06-14 06:16:00,
2013-06-14 02:18:00,69.7,57.8,29.60,North,360,12.0,14.0,66,0.00,,,0.00,Wunderground v.1.15,2013-06-14 06:18:00,
2013-06-14 02:20:00,69.8,57.9,29.60,North,360,11.0,11.0,66,0.00,,,0.00,Wunderground v.1.15,2013-06-14 06:20:00,
2013-06-14 02:24:00,69.8,57.9,29.60,North,360,10.0,11.0,66,0.00,,,0.00,Wunderground v.1.15,2013-06-14 06:24:00,
2013-06-14 02:26:00,70.0,58.1,29.60,North,360,10.0,11.0,66,0.00,,,0.00,Wunderground v.1.15,2013-06-14 06:26:00,
2013-06-14 02:28:00,69.9,58.0,29.61,North,360,10.0,13.0,66,0.00,,,0.00,Wunderground v.1.15,2013-06-14 06:28:00,
2013-06-14 02:30:00,69.9,58.0,29.61,North,360,11.0,12.0,66,0.00,,,0.00,Wunderground v.1.15,2013-06-14 06:30:00,
2013-06-14 02:34:00,69.5,57.6,29.61,North,360,12.0,14.0,66,0.00,,,0.00,Wunderground v.1.15,2013-06-14 06:34:00,
2013-06-14 02:38:00,68.9,57.9,29.61,North,360,13.0,16.0,68,0.00,,,0.00,Wunderground v.1.15,2013-06-14 06:38:00,
2013-06-14 02:42:00,68.5,57.5,29.61,North,360,14.0,16.0,68,0.00,,,0.00,Wunderground v.1.15,2013-06-14 06:42:00,
2013-06-14 02:44:00,68.3,57.7,29.61,North,360,14.0,16.0,69,0.00,,,0.00,Wunderground v.1.15,2013-06-14 06:44:00,
2013-06-14 02:46:00,68.3,57.7,29.61,North,360,13.0,16.0,69,0.00,,,0.00,Wunderground v.1.15,2013-06-14 06:46:00,
2013-06-14 02:50:00,68.3,57.7,29.61,North,360,12.0,15.0,69,0.00,,,0.00,Wunderground v.1.15,2013-06-14 06:50:00,
2013-06-14 02:52:00,68.3,57.7,29.62,North,360,12.0,21.0,69,0.00,,,0.00,Wunderground v.1.15,2013-06-14 06:52:00,
2013-06-14 02:56:00,68.4,57.8,29.62,North,360,12.0,21.0,69,0.00,,,0.00,Wunderground v.1.15,2013-06-14 06:56:00,
2013-06-14 02:58:00,68.2,57.6,29.62,North,360,14.0,21.0,69,0.00,,,0.00,Wunderground v.1.15,2013-06-14 06:58:00,
2013-06-14 03:00:00,68.1,57.9,29.62,North,360,14.0,14.0,70,0.00,,,0.00,Wunderground v.1.15,2013-06-14 07:00:00,
2013-06-14 03:02:00,67.9,57.8,29.62,North,360,14.0,14.0,70,0.00,,,0.00,Wunderground v.1.15,2013-06-14 07:02:00,
2013-06-14 03:04:00,67.4,58.1,29.62,North,360,14.0,14.0,72,0.00,,,0.00,Wunderground v.1.15,2013-06-14 07:04:00,
2013-06-14 03:08:00,66.5,58.7,29.63,North,360,13.0,14.0,76,0.00,,,0.00,Wunderground v.1.15,2013-06-14 07:08:00,
2013-06-14 03:10:00,66.1,58.7,29.63,North,360,11.0,11.0,77,0.00,,,0.00,Wunderground v.1.15,2013-06-14 07:10:00,
2013-06-14 03:16:00,65.7,59.0,29.64,North,360,12.0,14.0,79,0.00,,,0.00,Wunderground v.1.15,2013-06-14 07:16:00,
2013-06-14 03:18:00,65.6,58.6,29.64,North,360,12.0,14.0,78,0.00,,,0.00,Wunderground v.1.15,2013-06-14 07:18:00,
2013-06-14 03:20:00,65.7,58.7,29.64,North,360,12.0,16.0,78,0.00,,,0.00,Wunderground v.1.15,2013-06-14 07:20:00,
2013-06-14 03:24:00,66.0,58.6,29.64,North,360,10.0,16.0,77,0.00,,,0.00,Wunderground v.1.15,2013-06-14 07:24:00,
2013-06-14 03:26:00,66.2,58.8,29.64,North,360,9.0,16.0,77,0.00,,,0.00,Wunderground v.1.15,2013-06-14 07:26:00,
2013-06-14 03:30:00,66.2,58.4,29.64,North,360,8.0,9.0,76,0.00,,,0.00,Wunderground v.1.15,2013-06-14 07:30:00,
2013-06-14 03:36:00,66.0,58.2,29.64,North,360,10.0,13.0,76,0.00,,,0.00,Wunderground v.1.15,2013-06-14 07:36:00,
2013-06-14 03:38:00,65.9,58.1,29.64,North,360,11.0,13.0,76,0.00,,,0.00,Wunderground v.1.15,2013-06-14 07:38:00,
2013-06-14 03:44:00,66.1,58.3,29.65,North,360,12.0,16.0,76,0.00,,,0.00,Wunderground v.1.15,2013-06-14 07:44:00,
2013-06-14 03:48:00,66.1,57.9,29.65,North,360,11.0,16.0,75,0.00,,,0.00,Wunderground v.1.15,2013-06-14 07:48:00,
2013-06-14 03:50:00,66.1,57.9,29.66,North,360,11.0,12.0,75,0.00,,,0.00,Wunderground v.1.15,2013-06-14 07:50:00,
2013-06-14 03:54:00,66.1,57.9,29.66,North,360,11.0,12.0,75,0.00,,,0.00,Wunderground v.1.15,2013-06-14 07:54:00,
2013-06-14 04:00:00,66.0,57.8,29.66,North,360,11.0,11.0,75,0.00,,,0.00,Wunderground v.1.15,2013-06-14 08:00:00,
2013-06-14 04:04:00,66.0,57.8,29.66,North,360,11.0,16.0,75,0.00,,,0.00,Wunderground v.1.15,2013-06-14 08:04:00,
2013-06-14 04:06:00,66.1,57.9,29.66,North,360,11.0,16.0,75,0.00,,,0.00,Wunderground v.1.15,2013-06-14 08:06:00,
2013-06-14 04:08:00,66.0,57.5,29.66,North,360,12.0,17.0,74,0.00,,,0.00,Wunderground v.1.15,2013-06-14 08:08:00,
2013-06-14 04:10:00,65.8,57.3,29.66,North,360,13.0,15.0,74,0.00,,,0.00,Wunderground v.1.15,2013-06-14 08:10:00,
2013-06-14 04:12:00,65.9,57.7,29.66,North,360,13.0,15.0,75,0.00,,,0.00,Wunderground v.1.15,2013-06-14 08:12:00,
2013-06-14 04:18:00,65.8,57.3,29.67,North,360,12.0,15.0,74,0.00,,,0.00,Wunderground v.1.15,2013-06-14 08:18:00,
2013-06-14 04:20:00,65.9,57.4,29.67,North,360,11.0,16.0,74,0.00,,,0.00,Wunderground v.1.15,2013-06-14 08:20:00,
2013-06-14 04:22:00,65.8,56.9,29.67,North,360,13.0,16.0,73,0.00,,,0.00,Wunderground v.1.15,2013-06-14 08:22:00,
2013-06-14 04:26:00,65.8,56.9,29.67,North,360,13.0,16.0,73,0.00,,,0.00,Wunderground v.1.15,2013-06-14 08:26:00,
2013-06-14 04:28:00,65.8,57.3,29.67,North,360,13.0,16.0,74,0.00,,,0.00,Wunderground v.1.15,2013-06-14 08:28:00,
2013-06-14 04:30:00,65.9,57.4,29.67,North,360,12.0,12.0,74,0.00,,,0.00,Wunderground v.1.15,2013-06-14 08:30:00,
2013-06-14 04:32:00,66.0,57.5,29.67,North,360,10.0,14.0,74,0.00,,,0.00,Wunderground v.1.15,2013-06-14 08:32:00,
2013-06-14 04:38:00,65.5,57.0,29.68,North,360,9.0,14.0,74,0.00,,,0.00,Wunderground v.1.15,2013-06-14 08:38:00,
2013-06-14 04:40:00,65.0,56.9,29.68,North,360,10.0,16.0,75,0.00,,,0.00,Wunderground v.1.15,2013-06-14 08:40:00,
2013-06-14 04:44:00,63.5,56.5,29.69,North,360,13.0,17.0,78,0.00,,,0.00,Wunderground v.1.15,2013-06-14 08:44:00,
2013-06-14 04:46:00,63.0,56.4,29.69,North,360,15.0,24.0,79,0.00,,,0.00,Wunderground v.1.15,2013-06-14 08:46:00,
2013-06-14 04:50:00,61.9,56.0,29.69,North,360,17.0,21.0,81,0.00,,,0.00,Wunderground v.1.15,2013-06-14 08:50:00,
2013-06-14 04:54:00,61.0,56.1,29.69,North,360,18.0,21.0,84,0.00,,,0.00,Wunderground v.1.15,2013-06-14 08:54:00,
2013-06-14 04:56:00,60.9,56.4,29.69,North,360,17.0,21.0,85,0.00,,,0.00,Wunderground v.1.15,2013-06-14 08:56:00,
2013-06-14 05:00:00,60.7,56.5,29.70,North,360,15.0,15.0,86,0.00,,,0.00,Wunderground v.1.15,2013-06-14 09:00:00,
2013-06-14 05:02:00,60.9,56.7,29.70,North,360,13.0,15.0,86,0.00,,,0.00,Wunderground v.1.15,2013-06-14 09:02:00,
2013-06-14 05:04:00,61.0,56.8,29.70,North,360,12.0,15.0,86,0.00,,,0.00,Wunderground v.1.15,2013-06-14 09:04:00,
2013-06-14 05:08:00,61.3,56.8,29.70,North,360,11.0,15.0,85,0.00,,,0.00,Wunderground v.1.15,2013-06-14 09:08:00,
2013-06-14 05:10:00,61.4,56.5,29.71,North,360,11.0,11.0,84,0.00,,,0.00,Wunderground v.1.15,2013-06-14 09:10:00,
2013-06-14 05:14:00,61.5,56.6,29.71,North,360,11.0,16.0,84,0.00,,,0.00,Wunderground v.1.15,2013-06-14 09:14:00,
2013-06-14 05:16:00,61.3,56.1,29.71,North,360,12.0,16.0,83,0.00,,,0.00,Wunderground v.1.15,2013-06-14 09:16:00,
2013-06-14 05:18:00,61.1,55.9,29.71,North,360,12.0,16.0,83,0.00,,,0.00,Wunderground v.1.15,2013-06-14 09:18:00,
2013-06-14 05:22:00,60.6,55.7,29.71,North,360,13.0,14.0,84,0.00,,,0.00,Wunderground v.1.15,2013-06-14 09:22:00,
2013-06-14 05:24:00,60.7,55.8,29.71,North,360,13.0,14.0,84,0.00,,,0.00,Wunderground v.1.15,2013-06-14 09:24:00,
2013-06-14 05:26:00,60.8,55.9,29.71,North,360,12.0,14.0,84,0.00,,,0.00,Wunderground v.1.15,2013-06-14 09:26:00,
2013-06-14 05:30:00,60.9,56.0,29.71,North,360,9.0,10.0,84,0.00,,,0.00,Wunderground v.1.15,2013-06-14 09:30:00,
2013-06-14 05:34:00,60.9,55.7,29.72,North,360,9.0,14.0,83,0.00,,,0.00,Wunderground v.1.15,2013-06-14 09:34:00,
2013-06-14 05:36:00,61.0,55.8,29.72,North,360,9.0,14.0,83,0.00,,,0.00,Wunderground v.1.15,2013-06-14 09:36:00,
2013-06-14 05:38:00,61.1,55.9,29.72,North,360,9.0,17.0,83,0.00,,,0.00,Wunderground v.1.15,2013-06-14 09:38:00,
2013-06-14 05:40:00,61.1,55.9,29.72,North,360,10.0,10.0,83,0.00,,,0.00,Wunderground v.1.15,2013-06-14 09:40:00,
2013-06-14 05:42:00,61.1,55.9,29.72,North,360,9.0,10.0,83,0.00,,,0.00,Wunderground v.1.15,2013-06-14 09:42:00,
2013-06-14 05:46:00,61.0,55.8,29.72,North,360,9.0,10.0,83,0.00,,,0.00,Wunderground v.1.15,2013-06-14 09:46:00,
2013-06-14 05:50:00,61.0,55.5,29.72,North,360,9.0,9.0,82,0.00,,,0.00,Wunderground v.1.15,2013-06-14 09:50:00,
2013-06-14 05:52:00,61.0,55.8,29.72,North,360,8.0,13.0,83,0.00,,,0.00,Wunderground v.1.15,2013-06-14 09:52:00,
2013-06-14 05:58:00,60.9,55.4,29.72,North,360,9.0,13.0,82,0.00,,,0.00,Wunderground v.1.15,2013-06-14 09:58:00,
2013-06-14 06:00:00,60.8,55.6,29.72,North,360,9.0,9.0,83,0.00,,,0.00,Wunderground v.1.15,2013-06-14 10:00:00,
2013-06-14 06:02:00,60.8,55.6,29.73,North,360,10.0,10.0,83,0.00,,,0.00,Wunderground v.1.15,2013-06-14 10:02:00,
2013-06-14 06:06:00,60.9,55.7,29.73,North,360,9.0,12.0,83,0.00,,,0.00,Wunderground v.1.15,2013-06-14 10:06:00,
2013-06-14 06:08:00,60.9,55.7,29.73,North,360,8.0,12.0,83,0.00,,,0.00,Wunderground v.1.15,2013-06-14 10:08:00,
2013-06-14 06:10:00,61.0,55.8,29.73,North,360,7.0,7.0,83,0.00,,,0.00,Wunderground v.1.15,2013-06-14 10:10:00,
2013-06-14 06:14:00,61.2,56.0,29.73,North,360,7.0,13.0,83,0.00,,,0.00,Wunderground v.1.15,2013-06-14 10:14:00,
2013-06-14 06:16:00,61.2,56.0,29.73,North,360,7.0,13.0,83,0.00,,,0.00,Wunderground v.1.15,2013-06-14 10:16:00,
2013-06-14 06:18:00,61.2,56.0,29.73,North,360,6.0,13.0,83,0.00,,,0.00,Wunderground v.1.15,2013-06-14 10:18:00,
2013-06-14 06:20:00,61.3,56.1,29.74,North,360,6.0,6.0,83,0.00,,,0.00,Wunderground v.1.15,2013-06-14 10:20:00,
2013-06-14 06:24:00,61.6,56.0,29.74,North,360,6.0,6.0,82,0.00,,,0.00,Wunderground v.1.15,2013-06-14 10:24:00,
2013-06-14 06:26:00,61.6,56.0,29.73,North,360,5.0,10.0,82,0.00,,,0.00,Wunderground v.1.15,2013-06-14 10:26:00,
2013-06-14 06:32:00,61.6,56.0,29.74,North,360,6.0,6.0,82,0.00,,,0.00,Wunderground v.1.15,2013-06-14 10:32:00,
2013-06-14 06:34:00,61.8,56.6,29.74,North,360,5.0,6.0,83,0.00,,,0.00,Wunderground v.1.15,2013-06-14 10:34:00,
2013-06-14 06:38:00,62.0,56.8,29.74,North,360,5.0,6.0,83,0.00,,,0.00,Wunderground v.1.15,2013-06-14 10:38:00,
2013-06-14 06:40:00,62.2,57.0,29.75,North,360,4.0,6.0,83,0.00,,,0.00,Wunderground v.1.15,2013-06-14 10:40:00,
2013-06-14 06:42:00,62.3,57.1,29.75,North,360,4.0,6.0,83,0.00,,,0.00,Wunderground v.1.15,2013-06-14 10:42:00,
2013-06-14 06:44:00,62.3,57.1,29.75,North,360,5.0,6.0,83,0.00,,,0.00,Wunderground v.1.15,2013-06-14 10:44:00,
2013-06-14 06:46:00,62.2,57.0,29.75,North,360,5.0,6.0,83,0.00,,,0.00,Wunderground v.1.15,2013-06-14 10:46:00,
2013-06-14 06:48:00,62.2,57.3,29.75,North,360,5.0,6.0,84,0.00,,,0.00,Wunderground v.1.15,2013-06-14 10:48:00,
2013-06-14 06:50:00,62.1,56.9,29.75,North,360,5.0,5.0,83,0.00,,,0.00,Wunderground v.1.15,2013-06-14 10:50:00,
2013-06-14 06:54:00,62.1,57.2,29.75,North,360,6.0,6.0,84,0.00,,,0.00,Wunderground v.1.15,2013-06-14 10:54:00,
2013-06-14 06:58:00,62.2,57.3,29.75,North,360,5.0,6.0,84,0.00,,,0.00,Wunderground v.1.15,2013-06-14 10:58:00,
2013-06-14 07:02:00,62.2,57.3,29.76,North,360,4.0,5.0,84,0.00,,,0.00,Wunderground v.1.15,2013-06-14 11:02:00,
2013-06-14 07:04:00,62.2,57.3,29.75,North,360,4.0,5.0,84,0.00,,,0.00,Wunderground v.1.15,2013-06-14 11:04:00,
2013-06-14 07:06:00,62.2,57.3,29.75,North,360,4.0,5.0,84,0.00,,,0.00,Wunderground v.1.15,2013-06-14 11:06:00,
2013-06-14 07:08:00,62.2,57.3,29.76,North,360,4.0,5.0,84,0.00,,,0.00,Wunderground v.1.15,2013-06-14 11:08:00,
2013-06-14 07:12:00,62.3,57.1,29.76,North,360,4.0,5.0,83,0.00,,,0.00,Wunderground v.1.15,2013-06-14 11:12:00,
2013-06-14 07:14:00,62.3,57.4,29.76,North,360,4.0,5.0,84,0.00,,,0.00,Wunderground v.1.15,2013-06-14 11:14:00,
2013-06-14 07:16:00,62.3,57.4,29.76,North,360,4.0,5.0,84,0.00,,,0.00,Wunderground v.1.15,2013-06-14 11:16:00,
2013-06-14 07:20:00,62.2,57.0,29.76,North,360,5.0,7.0,83,0.00,,,0.00,Wunderground v.1.15,2013-06-14 11:20:00,
2013-06-14 07:22:00,62.1,57.2,29.76,North,360,5.0,7.0,84,0.00,,,0.00,Wunderground v.1.15,2013-06-14 11:22:00,
2013-06-14 07:24:00,62.2,57.3,29.76,North,360,5.0,7.0,84,0.00,,,0.00,Wunderground v.1.15,2013-06-14 11:24:00,
2013-06-14 07:26:00,62.3,57.4,29.76,North,360,6.0,7.0,84,0.00,,,0.00,Wunderground v.1.15,2013-06-14 11:26:00,
2013-06-14 07:28:00,62.3,57.4,29.76,North,360,6.0,7.0,84,0.00,,,0.00,Wunderground v.1.15,2013-06-14 11:28:00,
2013-06-14 07:30:00,62.2,57.0,29.76,North,360,6.0,7.0,83,0.00,,,0.00,Wunderground v.1.15,2013-06-14 11:30:00,
2013-06-14 07:34:00,62.2,57.3,29.76,North,360,7.0,7.0,84,0.00,,,0.00,Wunderground v.1.15,2013-06-14 11:34:00,
2013-06-14 07:36:00,62.3,57.4,29.76,North,360,6.0,7.0,84,0.00,,,0.00,Wunderground v.1.15,2013-06-14 11:36:00,
2013-06-14 07:40:00,62.4,57.5,29.77,North,360,6.0,6.0,84,0.00,,,0.00,Wunderground v.1.15,2013-06-14 11:40:00,
2013-06-14 07:44:00,62.4,57.2,29.77,North,360,7.0,12.0,83,0.00,,,0.00,Wunderground v.1.15,2013-06-14 11:44:00,
2013-06-14 07:46:00,62.4,57.2,29.77,North,360,8.0,12.0,83,0.00,,,0.00,Wunderground v.1.15,2013-06-14 11:46:00,
2013-06-14 07:52:00,62.6,57.4,29.77,North,360,8.0,8.0,83,0.00,,,0.00,Wunderground v.1.15,2013-06-14 11:52:00,
2013-06-14 07:54:00,62.8,57.6,29.77,North,360,7.0,8.0,83,0.00,,,0.00,Wunderground v.1.15,2013-06-14 11:54:00,
2013-06-14 07:56:00,62.9,57.7,29.78,North,360,6.0,12.0,83,0.00,,,0.00,Wunderground v.1.15,2013-06-14 11:56:00,
2013-06-14 07:58:00,63.0,57.8,29.78,North,360,6.0,12.0,83,0.00,,,0.00,Wunderground v.1.15,2013-06-14 11:58:00,
2013-06-14 08:00:00,63.1,57.9,29.78,North,360,6.0,6.0,83,0.00,,,0.00,Wunderground v.1.15,2013-06-14 12:00:00,
2013-06-14 08:04:00,62.9,57.7,29.78,North,360,6.0,12.0,83,0.00,,,0.00,Wunderground v.1.15,2013-06-14 12:04:00,
2013-06-14 08:06:00,62.9,57.3,29.78,North,360,6.0,12.0,82,0.00,,,0.00,Wunderground v.1.15,2013-06-14 12:06:00,
2013-06-14 08:08:00,62.8,57.6,29.78,North,360,6.0,12.0,83,0.00,,,0.00,Wunderground v.1.15,2013-06-14 12:08:00,
2013-06-14 08:10:00,62.7,57.1,29.78,North,360,7.0,9.0,82,0.00,,,0.00,Wunderground v.1.15,2013-06-14 12:10:00,
2013-06-14 08:14:00,62.9,57.3,29.78,North,360,8.0,11.0,82,0.00,,,0.00,Wunderground v.1.15,2013-06-14 12:14:00,
2013-06-14 08:16:00,62.9,57.3,29.78,North,360,8.0,11.0,82,0.00,,,0.00,Wunderground v.1.15,2013-06-14 12:16:00,
2013-06-14 08:20:00,62.9,57.0,29.78,North,360,8.0,8.0,81,0.00,,,0.00,Wunderground v.1.15,2013-06-14 12:20:00,
2013-06-14 08:24:00,63.3,57.7,29.79,North,360,6.0,8.0,82,0.00,,,0.00,Wunderground v.1.15,2013-06-14 12:24:00,
2013-06-14 08:26:00,63.4,57.5,29.78,North,360,7.0,8.0,81,0.00,,,0.00,Wunderground v.1.15,2013-06-14 12:26:00,
2013-06-14 08:30:00,63.3,57.0,29.79,North,360,7.0,10.0,80,0.00,,,0.00,Wunderground v.1.15,2013-06-14 12:30:00,
2013-06-14 08:32:00,63.2,57.3,29.79,North,360,8.0,10.0,81,0.00,,,0.00,Wunderground v.1.15,2013-06-14 12:32:00,
2013-06-14 08:38:00,63.5,57.6,29.79,North,360,8.0,11.0,81,0.00,,,0.00,Wunderground v.1.15,2013-06-14 12:38:00,
2013-06-14 08:40:00,63.7,57.8,29.79,North,360,7.0,7.0,81,0.00,,,0.00,Wunderground v.1.15,2013-06-14 12:40:00,
2013-06-14 08:44:00,64.1,57.8,29.79,North,360,6.0,10.0,80,0.00,,,0.00,Wunderground v.1.15,2013-06-14 12:44:00,
2013-06-14 08:46:00,64.3,58.0,29.79,North,360,5.0,11.0,80,0.00,,,0.00,Wunderground v.1.15,2013-06-14 12:46:00,
2013-06-14 08:48:00,64.2,57.9,29.79,North,360,6.0,11.0,80,0.00,,,0.00,Wunderground v.1.15,2013-06-14 12:48:00,
2013-06-14 08:52:00,64.1,57.5,29.80,North,360,7.0,9.0,79,0.00,,,0.00,Wunderground v.1.15,2013-06-14 12:52:00,
2013-06-14 08:54:00,64.0,57.7,29.80,North,360,8.0,9.0,80,0.00,,,0.00,Wunderground v.1.15,2013-06-14 12:54:00,
2013-06-14 08:56:00,64.0,57.4,29.80,North,360,9.0,9.0,79,0.00,,,0.00,Wunderground v.1.15,2013-06-14 12:56:00,
2013-06-14 08:58:00,64.1,57.5,29.80,North,360,9.0,9.0,79,0.00,,,0.00,Wunderground v.1.15,2013-06-14 12:58:00,
2013-06-14 09:00:00,64.3,58.0,29.80,North,360,9.0,9.0,80,0.00,,,0.00,Wunderground v.1.15,2013-06-14 13:00:00,
2013-06-14 09:02:00,64.4,57.7,29.80,North,360,9.0,11.0,79,0.00,,,0.00,Wunderground v.1.15,2013-06-14 13:02:00,
2013-06-14 09:06:00,64.4,57.4,29.80,North,360,8.0,11.0,78,0.00,,,0.00,Wunderground v.1.15,2013-06-14 13:06:00,
2013-06-14 09:08:00,64.5,57.5,29.80,North,360,8.0,11.0,78,0.00,,,0.00,Wunderground v.1.15,2013-06-14 13:08:00,
2013-06-14 09:12:00,64.7,57.7,29.80,North,360,9.0,12.0,78,0.00,,,0.00,Wunderground v.1.15,2013-06-14 13:12:00,
2013-06-14 09:14:00,64.6,57.2,29.81,North,360,9.0,12.0,77,0.00,,,0.00,Wunderground v.1.15,2013-06-14 13:14:00,
2013-06-14 09:18:00,65.1,57.7,29.81,North,360,9.0,13.0,77,0.00,,,0.00,Wunderground v.1.15,2013-06-14 13:18:00,
2013-06-14 09:20:00,65.2,57.4,29.80,North,360,9.0,15.0,76,0.00,,,0.00,Wunderground v.1.15,2013-06-14 13:20:00,
2013-06-14 09:22:00,65.2,57.1,29.80,North,360,10.0,15.0,75,0.00,,,0.00,Wunderground v.1.15,2013-06-14 13:22:00,
2013-06-14 09:24:00,65.2,57.1,29.80,North,360,10.0,16.0,75,0.00,,,0.00,Wunderground v.1.15,2013-06-14 13:24:00,
2013-06-14 09:26:00,65.2,56.7,29.80,North,360,12.0,16.0,74,0.00,,,0.01,Wunderground v.1.15,2013-06-14 13:26:00,
2013-06-14 09:32:00,65.3,56.8,29.81,North,360,13.0,14.0,74,0.00,,,0.01,Wunderground v.1.15,2013-06-14 13:32:00,
2013-06-14 09:36:00,65.4,56.9,29.81,North,360,12.0,16.0,74,0.00,,,0.01,Wunderground v.1.15,2013-06-14 13:36:00,
2013-06-14 09:38:00,65.5,57.0,29.81,North,360,12.0,16.0,74,0.00,,,0.01,Wunderground v.1.15,2013-06-14 13:38:00,
2013-06-14 09:40:00,65.5,56.6,29.81,North,360,13.0,15.0,73,0.00,,,0.01,Wunderground v.1.15,2013-06-14 13:40:00,
2013-06-14 09:44:00,65.4,56.1,29.81,North,360,15.0,17.0,72,0.00,,,0.01,Wunderground v.1.15,2013-06-14 13:44:00,
2013-06-14 09:46:00,65.5,55.8,29.81,North,360,16.0,18.0,71,0.00,,,0.01,Wunderground v.1.15,2013-06-14 13:46:00,
2013-06-14 09:48:00,65.6,55.9,29.81,North,360,16.0,20.0,71,0.00,,,0.01,Wunderground v.1.15,2013-06-14 13:48:00,
2013-06-14 09:50:00,65.7,55.6,29.82,North,360,17.0,17.0,70,0.00,,,0.01,Wunderground v.1.15,2013-06-14 13:50:00,
2013-06-14 09:52:00,65.7,55.6,29.82,North,360,17.0,17.0,70,0.00,,,0.01,Wunderground v.1.15,2013-06-14 13:52:00,
2013-06-14 09:54:00,65.9,55.8,29.82,North,360,15.0,17.0,70,0.00,,,0.01,Wunderground v.1.15,2013-06-14 13:54:00,
2013-06-14 09:56:00,66.1,56.0,29.82,North,360,14.0,22.0,70,0.00,,,0.01,Wunderground v.1.15,2013-06-14 13:56:00,
2013-06-14 10:00:00,66.1,56.0,29.83,North,360,13.0,18.0,70,0.00,,,0.01,Wunderground v.1.15,2013-06-14 14:00:00,
2013-06-14 10:02:00,66.1,55.6,29.82,North,360,13.0,18.0,69,0.00,,,0.01,Wunderground v.1.15,2013-06-14 14:02:00,
2013-06-14 10:04:00,66.4,55.5,29.82,North,360,12.0,18.0,68,0.00,,,0.01,Wunderground v.1.15,2013-06-14 14:04:00,
2013-06-14 10:08:00,66.1,54.0,29.83,North,360,15.0,20.0,65,0.00,,,0.01,Wunderground v.1.15,2013-06-14 14:08:00,
2013-06-14 10:12:00,66.1,54.4,29.83,North,360,15.0,16.0,66,0.00,,,0.01,Wunderground v.1.15,2013-06-14 14:12:00,
2013-06-14 10:18:00,66.5,53.9,29.83,North,360,14.0,27.0,64,0.00,,,0.01,Wunderground v.1.15,2013-06-14 14:18:00,
2013-06-14 10:20:00,66.5,53.5,29.83,North,360,14.0,18.0,63,0.00,,,0.01,Wunderground v.1.15,2013-06-14 14:20:00,
2013-06-14 10:24:00,66.6,53.2,29.84,North,360,16.0,18.0,62,0.00,,,0.01,Wunderground v.1.15,2013-06-14 14:24:00,
2013-06-14 10:26:00,66.5,53.1,29.84,North,360,17.0,18.0,62,0.00,,,0.01,Wunderground v.1.15,2013-06-14 14:26:00,
2013-06-14 10:28:00,66.5,53.5,29.84,North,360,17.0,18.0,63,0.00,,,0.01,Wunderground v.1.15,2013-06-14 14:28:00,
2013-06-14 10:30:00,66.5,53.5,29.84,North,360,17.0,18.0,63,0.00,,,0.01,Wunderground v.1.15,2013-06-14 14:30:00,
2013-06-14 10:32:00,66.6,53.6,29.84,North,360,16.0,18.0,63,0.00,,,0.01,Wunderground v.1.15,2013-06-14 14:32:00,
2013-06-14 10:34:00,66.8,53.4,29.84,North,360,16.0,18.0,62,0.00,,,0.01,Wunderground v.1.15,2013-06-14 14:34:00,
2013-06-14 10:40:00,67.6,53.7,29.84,North,360,12.0,16.0,61,0.00,,,0.01,Wunderground v.1.15,2013-06-14 14:40:00,
2013-06-14 10:42:00,67.7,53.3,29.85,North,360,12.0,18.0,60,0.00,,,0.01,Wunderground v.1.15,2013-06-14 14:42:00,
2013-06-14 10:44:00,67.4,53.5,29.84,North,360,12.0,18.0,61,0.00,,,0.01,Wunderground v.1.15,2013-06-14 14:44:00,
2013-06-14 10:48:00,67.1,53.2,29.84,North,360,13.0,18.0,61,0.00,,,0.01,Wunderground v.1.15,2013-06-14 14:48:00,
2013-06-14 10:50:00,67.1,53.2,29.85,North,360,13.0,15.0,61,0.00,,,0.01,Wunderground v.1.15,2013-06-14 14:50:00,
2013-06-14 10:52:00,67.2,53.3,29.84,North,360,13.0,15.0,61,0.00,,,0.01,Wunderground v.1.15,2013-06-14 14:52:00,
2013-06-14 10:56:00,67.3,52.5,29.85,North,360,13.0,17.0,59,0.00,,,0.01,Wunderground v.1.15,2013-06-14 14:56:00,
2013-06-14 10:58:00,67.2,52.8,29.85,North,360,12.0,17.0,60,0.00,,,0.01,Wunderground v.1.15,2013-06-14 14:58:00,
2013-06-14 11:02:00,67.2,52.8,29.85,North,360,14.0,19.0,60,0.00,,,0.01,Wunderground v.1.15,2013-06-14 15:02:00,
2013-06-14 11:06:00,67.5,52.7,29.85,North,360,14.0,19.0,59,0.00,,,0.01,Wunderground v.1.15,2013-06-14 15:06:00,
2013-06-14 11:10:00,67.8,52.5,29.85,North,360,12.0,12.0,58,0.00,,,0.01,Wunderground v.1.15,2013-06-14 15:10:00,
2013-06-14 11:12:00,67.9,51.6,29.86,North,360,12.0,16.0,56,0.00,,,0.01,Wunderground v.1.15,2013-06-14 15:12:00,
2013-06-14 11:16:00,67.2,51.0,29.86,North,360,14.0,16.0,56,0.00,,,0.01,Wunderground v.1.15,2013-06-14 15:16:00,
2013-06-14 11:20:00,67.2,51.0,29.86,North,360,16.0,16.0,56,0.00,,,0.01,Wunderground v.1.15,2013-06-14 15:20:00,
2013-06-14 11:22:00,67.3,51.1,29.86,North,360,15.0,18.0,56,0.00,,,0.01,Wunderground v.1.15,2013-06-14 15:22:00,
2013-06-14 11:26:00,67.7,50.5,29.86,North,360,14.0,18.0,54,0.00,,,0.01,Wunderground v.1.15,2013-06-14 15:26:00,
2013-06-14 11:30:00,67.7,51.4,29.86,North,360,13.0,15.0,56,0.00,,,0.01,Wunderground v.1.15,2013-06-14 15:30:00,
2013-06-14 11:32:00,67.8,51.5,29.86,North,360,14.0,15.0,56,0.00,,,0.01,Wunderground v.1.15,2013-06-14 15:32:00,
2013-06-14 11:38:00,68.1,51.3,29.87,North,360,13.0,16.0,55,0.00,,,0.01,Wunderground v.1.15,2013-06-14 15:38:00,
2013-06-14 11:40:00,68.2,50.9,29.87,North,360,13.0,15.0,54,0.00,,,0.01,Wunderground v.1.15,2013-06-14 15:40:00,
2013-06-14 11:42:00,68.2,50.9,29.87,North,360,12.0,15.0,54,0.00,,,0.01,Wunderground v.1.15,2013-06-14 15:42:00,
2013-06-14 11:46:00,68.3,51.0,29.87,North,360,12.0,20.0,54,0.00,,,0.01,Wunderground v.1.15,2013-06-14 15:46:00,
2013-06-14 11:48:00,67.9,50.6,29.87,North,360,13.0,20.0,54,0.00,,,0.01,Wunderground v.1.15,2013-06-14 15:48:00,
2013-06-14 11:50:00,67.9,50.6,29.87,North,360,13.0,13.0,54,0.00,,,0.01,Wunderground v.1.15,2013-06-14 15:50:00,
2013-06-14 11:56:00,68.8,51.5,29.87,North,360,11.0,13.0,54,0.00,,,0.01,Wunderground v.1.15,2013-06-14 15:56:00,
2013-06-14 11:58:00,69.0,51.2,29.87,North,360,10.0,13.0,53,0.00,,,0.01,Wunderground v.1.15,2013-06-14 15:58:00,
2013-06-14 12:00:00,69.2,51.3,29.87,North,360,9.0,13.0,53,0.00,,,0.01,Wunderground v.1.15,2013-06-14 16:00:00,
2013-06-14 12:02:00,69.0,51.2,29.88,North,360,10.0,13.0,53,0.00,,,0.01,Wunderground v.1.15,2013-06-14 16:02:00,
2013-06-14 12:04:00,69.0,51.2,29.88,North,360,9.0,15.0,53,0.00,,,0.01,Wunderground v.1.15,2013-06-14 16:04:00,
2013-06-14 12:08:00,69.2,51.3,29.88,North,360,11.0,16.0,53,0.00,,,0.01,Wunderground v.1.15,2013-06-14 16:08:00,
2013-06-14 12:10:00,69.4,52.0,29.87,North,360,11.0,16.0,54,0.00,,,0.01,Wunderground v.1.15,2013-06-14 16:10:00,
2013-06-14 12:12:00,69.4,51.5,29.87,North,360,11.0,16.0,53,0.00,,,0.01,Wunderground v.1.15,2013-06-14 16:12:00,
2013-06-14 12:14:00,69.4,51.5,29.87,North,360,11.0,16.0,53,0.00,,,0.01,Wunderground v.1.15,2013-06-14 16:14:00,
2013-06-14 12:16:00,69.4,51.5,29.87,North,360,11.0,16.0,53,0.00,,,0.01,Wunderground v.1.15,2013-06-14 16:16:00,
2013-06-14 12:20:00,69.7,51.8,29.87,North,360,11.0,16.0,53,0.00,,,0.01,Wunderground v.1.15,2013-06-14 16:20:00,
2013-06-14 12:22:00,69.9,52.5,29.87,North,360,11.0,17.0,54,0.00,,,0.01,Wunderground v.1.15,2013-06-14 16:22:00,
2013-06-14 12:26:00,70.1,52.2,29.87,North,360,11.0,17.0,53,0.00,,,0.01,Wunderground v.1.15,2013-06-14 16:26:00,
2013-06-14 12:28:00,70.2,52.3,29.87,North,360,11.0,17.0,53,0.00,,,0.01,Wunderground v.1.15,2013-06-14 16:28:00,
2013-06-14 12:30:00,70.3,52.4,29.87,North,360,10.0,12.0,53,0.00,,,0.01,Wunderground v.1.15,2013-06-14 16:30:00,
2013-06-14 12:34:00,70.7,52.7,29.87,North,360,9.0,12.0,53,0.00,,,0.01,Wunderground v.1.15,2013-06-14 16:34:00,
2013-06-14 12:36:00,70.6,53.1,29.87,North,360,8.0,12.0,54,0.00,,,0.01,Wunderground v.1.15,2013-06-14 16:36:00,
2013-06-14 12:38:00,70.8,53.3,29.87,North,360,8.0,12.0,54,0.00,,,0.01,Wunderground v.1.15,2013-06-14 16:38:00,
2013-06-14 12:40:00,71.0,53.5,29.87,North,360,9.0,12.0,54,0.00,,,0.01,Wunderground v.1.15,2013-06-14 16:40:00,
2013-06-14 12:44:00,70.9,53.4,29.87,North,360,9.0,12.0,54,0.00,,,0.01,Wunderground v.1.15,2013-06-14 16:44:00,
2013-06-14 12:48:00,71.1,53.6,29.87,North,360,10.0,12.0,54,0.00,,,0.01,Wunderground v.1.15,2013-06-14 16:48:00,
2013-06-14 12:50:00,71.1,53.6,29.87,North,360,11.0,12.0,54,0.00,,,0.01,Wunderground v.1.15,2013-06-14 16:50:00,
2013-06-14 12:52:00,71.2,53.7,29.87,North,360,11.0,13.0,54,0.00,,,0.01,Wunderground v.1.15,2013-06-14 16:52:00,
2013-06-14 12:54:00,71.2,53.7,29.87,North,360,12.0,13.0,54,0.00,,,0.01,Wunderground v.1.15,2013-06-14 16:54:00,
2013-06-14 12:58:00,71.1,53.6,29.87,North,360,13.0,13.0,54,0.00,,,0.01,Wunderground v.1.15,2013-06-14 16:58:00,
2013-06-14 13:00:00,71.3,54.3,29.87,North,360,12.0,12.0,55,0.00,,,0.01,Wunderground v.1.15,2013-06-14 17:00:00,
2013-06-14 13:02:00,71.6,54.1,29.87,North,360,12.0,14.0,54,0.00,,,0.01,Wunderground v.1.15,2013-06-14 17:02:00,
2013-06-14 13:06:00,71.8,54.3,29.87,North,360,11.0,16.0,54,0.00,,,0.01,Wunderground v.1.15,2013-06-14 17:06:00,
2013-06-14 13:08:00,71.8,53.7,29.87,North,360,10.0,16.0,53,0.00,,,0.01,Wunderground v.1.15,2013-06-14 17:08:00,
2013-06-14 13:12:00,71.5,54.0,29.87,North,360,9.0,10.0,54,0.00,,,0.01,Wunderground v.1.15,2013-06-14 17:12:00,
2013-06-14 13:14:00,71.7,54.2,29.87,North,360,8.0,10.0,54,0.00,,,0.01,Wunderground v.1.15,2013-06-14 17:14:00,
2013-06-14 13:16:00,72.0,54.4,29.87,North,360,8.0,10.0,54,0.00,,,0.01,Wunderground v.1.15,2013-06-14 17:16:00,
2013-06-14 13:22:00,72.6,54.5,29.87,North,360,7.0,18.0,53,0.00,,,0.01,Wunderground v.1.15,2013-06-14 17:22:00,
2013-06-14 13:26:00,72.3,54.2,29.87,North,360,9.0,18.0,53,0.00,,,0.01,Wunderground v.1.15,2013-06-14 17:26:00,
2013-06-14 13:30:00,72.8,54.7,29.87,North,360,10.0,14.0,53,0.00,,,0.01,Wunderground v.1.15,2013-06-14 17:30:00,
2013-06-14 13:34:00,72.6,54.5,29.87,North,360,9.0,15.0,53,0.00,,,0.01,Wunderground v.1.15,2013-06-14 17:34:00,
2013-06-14 13:36:00,72.8,54.7,29.87,North,360,10.0,15.0,53,0.00,,,0.01,Wunderground v.1.15,2013-06-14 17:36:00,
2013-06-14 13:42:00,72.9,54.8,29.87,North,360,11.0,12.0,53,0.00,,,0.01,Wunderground v.1.15,2013-06-14 17:42:00,
2013-06-14 13:44:00,73.0,54.3,29.87,North,360,11.0,12.0,52,0.00,,,0.01,Wunderground v.1.15,2013-06-14 17:44:00,
2013-06-14 13:50:00,72.8,54.7,29.87,North,360,10.0,10.0,53,0.00,,,0.01,Wunderground v.1.15,2013-06-14 17:50:00,
2013-06-14 13:52:00,73.0,54.9,29.87,North,360,11.0,15.0,53,0.00,,,0.01,Wunderground v.1.15,2013-06-14 17:52:00,
2013-06-14 13:54:00,72.9,54.8,29.87,North,360,11.0,15.0,53,0.00,,,0.01,Wunderground v.1.15,2013-06-14 17:54:00,
2013-06-14 13:56:00,73.2,55.0,29.87,North,360,10.0,15.0,53,0.00,,,0.01,Wunderground v.1.15,2013-06-14 17:56:00,
2013-06-14 13:58:00,73.3,54.6,29.87,North,360,10.0,15.0,52,0.00,,,0.01,Wunderground v.1.15,2013-06-14 17:58:00,
2013-06-14 14:00:00,73.1,54.9,29.87,North,360,10.0,13.0,53,0.00,,,0.01,Wunderground v.1.15,2013-06-14 18:00:00,
2013-06-14 14:04:00,73.0,54.9,29.87,North,360,9.0,13.0,53,0.00,,,0.01,Wunderground v.1.15,2013-06-14 18:04:00,
2013-06-14 14:06:00,73.1,54.9,29.87,North,360,10.0,13.0,53,0.00,,,0.01,Wunderground v.1.15,2013-06-14 18:06:00,
2013-06-14 14:10:00,73.7,55.5,29.87,North,360,9.0,9.0,53,0.00,,,0.01,Wunderground v.1.15,2013-06-14 18:10:00,
2013-06-14 14:12:00,73.8,55.1,29.87,North,360,9.0,9.0,52,0.00,,,0.01,Wunderground v.1.15,2013-06-14 18:12:00,
2013-06-14 14:14:00,73.5,55.3,29.87,North,360,8.0,11.0,53,0.00,,,0.01,Wunderground v.1.15,2013-06-14 18:14:00,
2013-06-14 14:18:00,73.4,55.2,29.87,North,360,9.0,15.0,53,0.00,,,0.01,Wunderground v.1.15,2013-06-14 18:18:00,
2013-06-14 14:20:00,73.7,55.5,29.87,North,360,10.0,10.0,53,0.00,,,0.01,Wunderground v.1.15,2013-06-14 18:20:00,
2013-06-14 14:22:00,74.1,55.3,29.87,North,360,10.0,12.0,52,0.00,,,0.01,Wunderground v.1.15,2013-06-14 18:22:00,
2013-06-14 14:24:00,74.0,55.3,29.87,North,360,10.0,14.0,52,0.00,,,0.01,Wunderground v.1.15,2013-06-14 18:24:00,
2013-06-14 14:28:00,74.1,55.3,29.87,North,360,10.0,14.0,52,0.00,,,0.01,Wunderground v.1.15,2013-06-14 18:28:00,
2013-06-14 14:30:00,73.9,54.6,29.86,North,360,9.0,9.0,51,0.00,,,0.01,Wunderground v.1.15,2013-06-14 18:30:00,
2013-06-14 14:34:00,74.7,54.8,29.86,North,360,8.0,9.0,50,0.00,,,0.01,Wunderground v.1.15,2013-06-14 18:34:00,
2013-06-14 14:36:00,74.8,55.5,29.86,North,360,8.0,9.0,51,0.00,,,0.01,Wunderground v.1.15,2013-06-14 18:36:00,
2013-06-14 14:38:00,75.1,54.6,29.87,North,360,7.0,11.0,49,0.00,,,0.01,Wunderground v.1.15,2013-06-14 18:38:00,
2013-06-14 14:40:00,75.2,54.7,29.87,North,360,8.0,8.0,49,0.00,,,0.01,Wunderground v.1.15,2013-06-14 18:40:00,
2013-06-14 14:42:00,75.3,54.8,29.87,North,360,9.0,15.0,49,0.00,,,0.01,Wunderground v.1.15,2013-06-14 18:42:00,
2013-06-14 14:44:00,74.9,55.0,29.87,North,360,10.0,15.0,50,0.00,,,0.01,Wunderground v.1.15,2013-06-14 18:44:00,
2013-06-14 14:48:00,74.8,54.9,29.87,North,360,12.0,15.0,50,0.00,,,0.01,Wunderground v.1.15,2013-06-14 18:48:00,
2013-06-14 14:50:00,75.1,55.2,29.87,North,360,10.0,10.0,50,0.00,,,0.01,Wunderground v.1.15,2013-06-14 18:50:00,
2013-06-14 14:52:00,75.6,55.6,29.87,North,360,10.0,10.0,50,0.00,,,0.01,Wunderground v.1.15,2013-06-14 18:52:00,
2013-06-14 14:54:00,75.7,55.7,29.87,North,360,9.0,10.0,50,0.00,,,0.01,Wunderground v.1.15,2013-06-14 18:54:00,
2013-06-14 14:58:00,75.4,54.9,29.87,North,360,9.0,12.0,49,0.00,,,0.01,Wunderground v.1.15,2013-06-14 18:58:00,
2013-06-14 15:00:00,75.1,55.2,29.87,North,360,10.0,15.0,50,0.00,,,0.01,Wunderground v.1.15,2013-06-14 19:00:00,
2013-06-14 15:04:00,75.1,55.2,29.87,North,360,10.0,15.0,50,0.00,,,0.01,Wunderground v.1.15,2013-06-14 19:04:00,
2013-06-14 15:06:00,75.5,55.6,29.87,North,360,9.0,15.0,50,0.00,,,0.01,Wunderground v.1.15,2013-06-14 19:06:00,
2013-06-14 15:10:00,75.7,55.7,29.87,North,360,8.0,15.0,50,0.00,,,0.01,Wunderground v.1.15,2013-06-14 19:10:00,
2013-06-14 15:12:00,75.5,55.6,29.87,North,360,8.0,15.0,50,0.00,,,0.01,Wunderground v.1.15,2013-06-14 19:12:00,
2013-06-14 15:14:00,75.2,55.8,29.87,North,360,8.0,15.0,51,0.00,,,0.01,Wunderground v.1.15,2013-06-14 19:14:00,
2013-06-14 15:16:00,75.2,55.8,29.87,North,360,8.0,15.0,51,0.00,,,0.01,Wunderground v.1.15,2013-06-14 19:16:00,
2013-06-14 15:20:00,75.7,55.7,29.87,North,360,10.0,10.0,50,0.00,,,0.01,Wunderground v.1.15,2013-06-14 19:20:00,
2013-06-14 15:26:00,75.9,55.9,29.87,North,360,11.0,13.0,50,0.00,,,0.01,Wunderground v.1.15,2013-06-14 19:26:00,
2013-06-14 15:28:00,76.1,56.1,29.87,North,360,10.0,13.0,50,0.00,,,0.01,Wunderground v.1.15,2013-06-14 19:28:00,
2013-06-14 15:30:00,76.0,56.0,29.87,North,360,9.0,9.0,50,0.00,,,0.01,Wunderground v.1.15,2013-06-14 19:30:00,
2013-06-14 15:32:00,76.1,56.1,29.87,North,360,8.0,9.0,50,0.00,,,0.01,Wunderground v.1.15,2013-06-14 19:32:00,
2013-06-14 15:34:00,76.2,56.7,29.87,North,360,7.0,9.0,51,0.00,,,0.01,Wunderground v.1.15,2013-06-14 19:34:00,
2013-06-14 15:36:00,76.4,56.4,29.87,North,360,7.0,11.0,50,0.00,,,0.01,Wunderground v.1.15,2013-06-14 19:36:00,
2013-06-14 15:40:00,76.4,56.4,29.87,North,360,6.0,6.0,50,0.00,,,0.01,Wunderground v.1.15,2013-06-14 19:40:00,
2013-06-14 15:42:00,76.7,56.7,29.87,North,360,7.0,7.0,50,0.00,,,0.01,Wunderground v.1.15,2013-06-14 19:42:00,
2013-06-14 15:46:00,76.8,56.8,29.86,North,360,5.0,11.0,50,0.00,,,0.01,Wunderground v.1.15,2013-06-14 19:46:00,
2013-06-14 15:48:00,76.8,56.2,29.86,North,360,5.0,11.0,49,0.00,,,0.01,Wunderground v.1.15,2013-06-14 19:48:00,
2013-06-14 15:52:00,76.6,56.0,29.86,North,360,7.0,11.0,49,0.00,,,0.01,Wunderground v.1.15,2013-06-14 19:52:00,
2013-06-14 15:54:00,76.4,56.4,29.86,North,360,7.0,11.0,50,0.00,,,0.01,Wunderground v.1.15,2013-06-14 19:54:00,
2013-06-14 15:58:00,76.0,56.0,29.86,North,360,8.0,11.0,50,0.00,,,0.01,Wunderground v.1.15,2013-06-14 19:58:00,
2013-06-14 16:00:00,76.0,56.6,29.86,North,360,8.0,8.0,51,0.00,,,0.01,Wunderground v.1.15,2013-06-14 20:00:00,
2013-06-14 16:02:00,76.2,56.7,29.86,North,360,7.0,8.0,51,0.00,,,0.01,Wunderground v.1.15,2013-06-14 20:02:00,
2013-06-14 16:06:00,76.2,56.7,29.86,North,360,7.0,8.0,51,0.00,,,0.01,Wunderground v.1.15,2013-06-14 20:06:00,
2013-06-14 16:12:00,76.3,56.8,29.86,North,360,6.0,6.0,51,0.00,,,0.01,Wunderground v.1.15,2013-06-14 20:12:00,
2013-06-14 16:16:00,76.8,57.3,29.86,North,360,6.0,6.0,51,0.00,,,0.01,Wunderground v.1.15,2013-06-14 20:16:00,
2013-06-14 16:18:00,77.1,57.6,29.86,North,360,5.0,6.0,51,0.00,,,0.01,Wunderground v.1.15,2013-06-14 20:18:00,
2013-06-14 16:20:00,77.6,57.5,29.86,North,360,6.0,6.0,50,0.00,,,0.01,Wunderground v.1.15,2013-06-14 20:20:00,
2013-06-14 16:22:00,77.9,57.2,29.86,North,360,6.0,13.0,49,0.00,,,0.01,Wunderground v.1.15,2013-06-14 20:22:00,
2013-06-14 16:26:00,78.0,56.7,29.85,North,360,7.0,13.0,48,0.00,,,0.01,Wunderground v.1.15,2013-06-14 20:26:00,
2013-06-14 16:30:00,78.0,56.7,29.86,North,360,8.0,8.0,48,0.00,,,0.01,Wunderground v.1.15,2013-06-14 20:30:00,
2013-06-14 16:34:00,77.6,56.4,29.86,North,360,8.0,10.0,48,0.00,,,0.01,Wunderground v.1.15,2013-06-14 20:34:00,
2013-06-14 16:36:00,77.5,56.3,29.86,North,360,8.0,10.0,48,0.00,,,0.01,Wunderground v.1.15,2013-06-14 20:36:00,
2013-06-14 16:38:00,77.5,56.3,29.86,North,360,7.0,10.0,48,0.00,,,0.01,Wunderground v.1.15,2013-06-14 20:38:00,
2013-06-14 16:42:00,77.9,57.2,29.85,North,360,6.0,7.0,49,0.00,,,0.01,Wunderground v.1.15,2013-06-14 20:42:00,
2013-06-14 16:44:00,78.2,56.9,29.86,North,360,6.0,7.0,48,0.00,,,0.01,Wunderground v.1.15,2013-06-14 20:44:00,
2013-06-14 16:46:00,78.0,56.1,29.86,North,360,6.0,11.0,47,0.00,,,0.01,Wunderground v.1.15,2013-06-14 20:46:00,
2013-06-14 16:48:00,77.6,56.4,29.86,North,360,7.0,12.0,48,0.00,,,0.01,Wunderground v.1.15,2013-06-14 20:48:00,
2013-06-14 16:52:00,77.6,55.8,29.85,North,360,8.0,8.0,47,0.00,,,0.01,Wunderground v.1.15,2013-06-14 20:52:00,
2013-06-14 16:54:00,77.8,56.0,29.85,North,360,8.0,8.0,47,0.00,,,0.01,Wunderground v.1.15,2013-06-14 20:54:00,
2013-06-14 16:56:00,78.0,55.5,29.86,North,360,7.0,8.0,46,0.00,,,0.01,Wunderground v.1.15,2013-06-14 20:56:00,
2013-06-14 16:58:00,78.2,55.7,29.85,North,360,6.0,8.0,46,0.00,,,0.01,Wunderground v.1.15,2013-06-14 20:58:00,
2013-06-14 17:00:00,78.3,56.4,29.85,North,360,6.0,6.0,47,0.00,,,0.01,Wunderground v.1.15,2013-06-14 21:00:00,
2013-06-14 17:02:00,78.4,55.9,29.85,North,360,6.0,7.0,46,0.00,,,0.01,Wunderground v.1.15,2013-06-14 21:02:00,
2013-06-14 17:08:00,79.3,54.9,29.85,North,360,7.0,10.0,43,0.00,,,0.01,Wunderground v.1.15,2013-06-14 21:08:00,
2013-06-14 17:10:00,79.4,54.3,29.85,North,360,7.0,7.0,42,0.00,,,0.01,Wunderground v.1.15,2013-06-14 21:10:00,
2013-06-14 17:12:00,79.3,54.9,29.85,North,360,7.0,7.0,43,0.00,,,0.01,Wunderground v.1.15,2013-06-14 21:12:00,
2013-06-14 17:16:00,79.0,54.6,29.85,North,360,7.0,10.0,43,0.00,,,0.01,Wunderground v.1.15,2013-06-14 21:16:00,
2013-06-14 17:18:00,78.6,54.2,29.86,North,360,7.0,10.0,43,0.00,,,0.01,Wunderground v.1.15,2013-06-14 21:18:00,
2013-06-14 17:20:00,78.5,54.1,29.85,North,360,7.0,7.0,43,0.00,,,0.01,Wunderground v.1.15,2013-06-14 21:20:00,
2013-06-14 17:22:00,78.6,54.2,29.85,North,360,8.0,8.0,43,0.00,,,0.01,Wunderground v.1.15,2013-06-14 21:22:00,
2013-06-14 17:24:00,78.8,54.4,29.85,North,360,7.0,8.0,43,0.00,,,0.01,Wunderground v.1.15,2013-06-14 21:24:00,
2013-06-14 17:28:00,79.1,54.7,29.85,North,360,6.0,8.0,43,0.00,,,0.01,Wunderground v.1.15,2013-06-14 21:28:00,
2013-06-14 17:30:00,79.1,55.3,29.85,North,360,6.0,11.0,44,0.00,,,0.01,Wunderground v.1.15,2013-06-14 21:30:00,
2013-06-14 17:32:00,79.3,54.9,29.85,North,360,7.0,11.0,43,0.00,,,0.01,Wunderground v.1.15,2013-06-14 21:32:00,
2013-06-14 17:34:00,79.1,53.4,29.85,North,360,8.0,11.0,41,0.00,,,0.01,Wunderground v.1.15,2013-06-14 21:34:00,
2013-06-14 17:38:00,78.9,53.9,29.85,North,360,9.0,11.0,42,0.00,,,0.01,Wunderground v.1.15,2013-06-14 21:38:00,
2013-06-14 17:44:00,79.6,53.8,29.85,North,360,8.0,13.0,41,0.00,,,0.01,Wunderground v.1.15,2013-06-14 21:44:00,
2013-06-14 17:46:00,79.7,53.9,29.85,North,360,8.0,13.0,41,0.00,,,0.01,Wunderground v.1.15,2013-06-14 21:46:00,
2013-06-14 17:48:00,79.9,54.1,29.85,North,360,8.0,13.0,41,0.00,,,0.01,Wunderground v.1.15,2013-06-14 21:48:00,
2013-06-14 17:50:00,80.0,53.5,29.85,North,360,8.0,12.0,40,0.00,,,0.01,Wunderground v.1.15,2013-06-14 21:50:00,
2013-06-14 17:54:00,79.6,53.8,29.86,North,360,9.0,12.0,41,0.00,,,0.01,Wunderground v.1.15,2013-06-14 21:54:00,
2013-06-14 17:56:00,79.6,53.8,29.86,North,360,9.0,12.0,41,0.00,,,0.01,Wunderground v.1.15,2013-06-14 21:56:00,
2013-06-14 17:58:00,79.6,53.8,29.85,North,360,9.0,12.0,41,0.00,,,0.01,Wunderground v.1.15,2013-06-14 21:58:00,
2013-06-14 18:00:00,79.6,53.8,29.86,North,360,8.0,10.0,41,0.00,,,0.01,Wunderground v.1.15,2013-06-14 22:00:00,
2013-06-14 18:02:00,79.4,53.6,29.85,North,360,9.0,12.0,41,0.00,,,0.01,Wunderground v.1.15,2013-06-14 22:02:00,
2013-06-14 18:04:00,79.3,53.6,29.85,North,360,9.0,12.0,41,0.00,,,0.01,Wunderground v.1.15,2013-06-14 22:04:00,
2013-06-14 18:06:00,79.5,54.4,29.85,North,360,8.0,12.0,42,0.00,,,0.01,Wunderground v.1.15,2013-06-14 22:06:00,
2013-06-14 18:08:00,79.7,53.9,29.86,North,360,8.0,12.0,41,0.00,,,0.01,Wunderground v.1.15,2013-06-14 22:08:00,
2013-06-14 18:10:00,79.8,54.7,29.85,North,360,8.0,8.0,42,0.00,,,0.01,Wunderground v.1.15,2013-06-14 22:10:00,
2013-06-14 18:14:00,79.6,53.8,29.85,North,360,7.0,14.0,41,0.00,,,0.01,Wunderground v.1.15,2013-06-14 22:14:00,
2013-06-14 18:16:00,79.4,53.6,29.85,North,360,8.0,14.0,41,0.00,,,0.01,Wunderground v.1.15,2013-06-14 22:16:00,
2013-06-14 18:18:00,79.4,54.3,29.86,North,360,8.0,14.0,42,0.00,,,0.01,Wunderground v.1.15,2013-06-14 22:18:00,
2013-06-14 18:20:00,79.3,54.9,29.86,North,360,8.0,8.0,43,0.00,,,0.01,Wunderground v.1.15,2013-06-14 22:20:00,
2013-06-14 18:22:00,79.6,55.1,29.86,North,360,8.0,8.0,43,0.00,,,0.01,Wunderground v.1.15,2013-06-14 22:22:00,
2013-06-14 18:24:00,79.8,54.7,29.86,North,360,8.0,10.0,42,0.00,,,0.01,Wunderground v.1.15,2013-06-14 22:24:00,
2013-06-14 18:26:00,80.0,54.2,29.86,North,360,8.0,11.0,41,0.00,,,0.01,Wunderground v.1.15,2013-06-14 22:26:00,
2013-06-14 18:28:00,79.7,54.6,29.86,North,360,8.0,11.0,42,0.00,,,0.01,Wunderground v.1.15,2013-06-14 22:28:00,
2013-06-14 18:32:00,79.8,55.3,29.86,North,360,8.0,8.0,43,0.00,,,0.01,Wunderground v.1.15,2013-06-14 22:32:00,
2013-06-14 18:34:00,80.0,54.8,29.86,North,360,8.0,12.0,42,0.00,,,0.01,Wunderground v.1.15,2013-06-14 22:34:00,
2013-06-14 18:38:00,79.6,54.5,29.86,North,360,9.0,14.0,42,0.00,,,0.01,Wunderground v.1.15,2013-06-14 22:38:00,
2013-06-14 18:40:00,79.3,54.2,29.86,North,360,9.0,9.0,42,0.00,,,0.01,Wunderground v.1.15,2013-06-14 22:40:00,
2013-06-14 18:42:00,79.1,54.7,29.86,North,360,10.0,10.0,43,0.00,,,0.01,Wunderground v.1.15,2013-06-14 22:42:00,
2013-06-14 18:44:00,79.3,54.9,29.86,North,360,9.0,10.0,43,0.00,,,0.01,Wunderground v.1.15,2013-06-14 22:44:00,
2013-06-14 18:46:00,79.4,55.0,29.86,North,360,9.0,10.0,43,0.00,,,0.01,Wunderground v.1.15,2013-06-14 22:46:00,
2013-06-14 18:48:00,79.6,55.1,29.86,North,360,8.0,10.0,43,0.00,,,0.01,Wunderground v.1.15,2013-06-14 22:48:00,
2013-06-14 18:50:00,79.9,55.4,29.86,North,360,7.0,7.0,43,0.00,,,0.01,Wunderground v.1.15,2013-06-14 22:50:00,
2013-06-14 18:52:00,79.8,54.7,29.86,North,360,7.0,10.0,42,0.00,,,0.01,Wunderground v.1.15,2013-06-14 22:52:00,
2013-06-14 18:54:00,79.4,55.0,29.86,North,360,9.0,10.0,43,0.00,,,0.01,Wunderground v.1.15,2013-06-14 22:54:00,
2013-06-14 18:56:00,79.3,54.9,29.86,North,360,8.0,10.0,43,0.00,,,0.01,Wunderground v.1.15,2013-06-14 22:56:00,
2013-06-14 18:58:00,79.5,54.4,29.87,North,360,8.0,10.0,42,0.00,,,0.01,Wunderground v.1.15,2013-06-14 22:58:00,
2013-06-14 19:00:00,79.5,54.4,29.87,North,360,8.0,8.0,42,0.00,,,0.01,Wunderground v.1.15,2013-06-14 23:00:00,
2013-06-14 19:06:00,79.6,55.1,29.87,North,360,7.0,11.0,43,0.00,,,0.01,Wunderground v.1.15,2013-06-14 23:06:00,
2013-06-14 19:08:00,79.6,55.1,29.86,North,360,7.0,17.0,43,0.00,,,0.01,Wunderground v.1.15,2013-06-14 23:08:00,
2013-06-14 19:12:00,79.1,55.3,29.87,North,360,7.0,11.0,44,0.00,,,0.01,Wunderground v.1.15,2013-06-14 23:12:00,
2013-06-14 19:16:00,78.9,55.1,29.87,North,360,9.0,11.0,44,0.00,,,0.01,Wunderground v.1.15,2013-06-14 23:16:00,
2013-06-14 19:18:00,79.0,55.2,29.87,North,360,8.0,12.0,44,0.00,,,0.01,Wunderground v.1.15,2013-06-14 23:18:00,
2013-06-14 19:22:00,79.2,55.4,29.87,North,360,8.0,10.0,44,0.00,,,0.01,Wunderground v.1.15,2013-06-14 23:22:00,
2013-06-14 19:24:00,79.2,55.4,29.87,North,360,8.0,10.0,44,0.00,,,0.01,Wunderground v.1.15,2013-06-14 23:24:00,
2013-06-14 19:30:00,79.3,55.5,29.87,North,360,7.0,7.0,44,0.00,,,0.01,Wunderground v.1.15,2013-06-14 23:30:00,
2013-06-14 19:32:00,79.4,56.2,29.87,North,360,7.0,7.0,45,0.00,,,0.01,Wunderground v.1.15,2013-06-14 23:32:00,
2013-06-14 19:34:00,79.4,55.6,29.87,North,360,6.0,7.0,44,0.00,,,0.01,Wunderground v.1.15,2013-06-14 23:34:00,
2013-06-14 19:36:00,79.2,55.4,29.87,North,360,6.0,9.0,44,0.00,,,0.01,Wunderground v.1.15,2013-06-14 23:36:00,
2013-06-14 19:38:00,79.0,55.8,29.87,North,360,6.0,9.0,45,0.00,,,0.01,Wunderground v.1.15,2013-06-14 23:38:00,
2013-06-14 19:40:00,79.1,55.9,29.87,North,360,6.0,6.0,45,0.00,,,0.01,Wunderground v.1.15,2013-06-14 23:40:00,
2013-06-14 19:44:00,79.0,55.8,29.87,North,360,5.0,6.0,45,0.00,,,0.01,Wunderground v.1.15,2013-06-14 23:44:00,
2013-06-14 19:46:00,79.1,55.9,29.87,North,360,4.0,6.0,45,0.00,,,0.01,Wunderground v.1.15,2013-06-14 23:46:00,
2013-06-14 19:50:00,78.9,56.4,29.87,North,360,4.0,6.0,46,0.00,,,0.01,Wunderground v.1.15,2013-06-14 23:50:00,
2013-06-14 19:52:00,78.7,56.8,29.87,North,360,4.0,6.0,47,0.00,,,0.01,Wunderground v.1.15,2013-06-14 23:52:00,
2013-06-14 19:54:00,78.5,56.6,29.87,North,360,5.0,10.0,47,0.00,,,0.01,Wunderground v.1.15,2013-06-14 23:54:00,
2013-06-14 19:56:00,78.3,56.4,29.87,North,360,6.0,10.0,47,0.00,,,0.01,Wunderground v.1.15,2013-06-14 23:56:00,
2013-06-14 19:58:00,78.2,56.3,29.87,North,360,7.0,10.0,47,0.00,,,0.01,Wunderground v.1.15,2013-06-14 23:58:00,
2013-06-14 20:00:00,78.1,56.8,29.88,North,360,7.0,7.0,48,0.00,,,0.01,Wunderground v.1.15,2013-06-15 00:00:00,
2013-06-14 20:02:00,78.0,56.7,29.88,North,360,7.0,9.0,48,0.00,,,0.01,Wunderground v.1.15,2013-06-15 00:02:00,
2013-06-14 20:06:00,78.0,56.7,29.88,North,360,8.0,9.0,48,0.00,,,0.01,Wunderground v.1.15,2013-06-15 00:06:00,
2013-06-14 20:08:00,78.1,56.8,29.88,North,360,7.0,9.0,48,0.00,,,0.01,Wunderground v.1.15,2013-06-15 00:08:00,
2013-06-14 20:10:00,78.1,57.4,29.88,North,360,6.0,6.0,49,0.00,,,0.01,Wunderground v.1.15,2013-06-15 00:10:00,
2013-06-14 20:12:00,78.1,57.4,29.88,North,360,5.0,6.0,49,0.00,,,0.01,Wunderground v.1.15,2013-06-15 00:12:00,
2013-06-14 20:14:00,78.0,56.7,29.88,North,360,5.0,6.0,48,0.00,,,0.01,Wunderground v.1.15,2013-06-15 00:14:00,
2013-06-14 20:20:00,77.7,57.0,29.88,North,360,6.0,6.0,49,0.00,,,0.01,Wunderground v.1.15,2013-06-15 00:20:00,
2013-06-14 20:24:00,77.6,57.5,29.88,North,360,5.0,6.0,50,0.00,,,0.01,Wunderground v.1.15,2013-06-15 00:24:00,
2013-06-14 20:26:00,77.5,56.8,29.88,North,360,5.0,7.0,49,0.00,,,0.01,Wunderground v.1.15,2013-06-15 00:26:00,
2013-06-14 20:28:00,77.6,56.9,29.88,North,360,5.0,7.0,49,0.00,,,0.01,Wunderground v.1.15,2013-06-15 00:28:00,
2013-06-14 20:30:00,77.6,56.9,29.88,North,360,5.0,5.0,49,0.00,,,0.01,Wunderground v.1.15,2013-06-15 00:30:00,
2013-06-14 20:34:00,77.6,57.5,29.88,North,360,4.0,6.0,50,0.00,,,0.01,Wunderground v.1.15,2013-06-15 00:34:00,
2013-06-14 20:36:00,77.5,56.8,29.88,North,360,5.0,7.0,49,0.00,,,0.01,Wunderground v.1.15,2013-06-15 00:36:00,
2013-06-14 20:40:00,77.3,57.2,29.88,North,360,5.0,6.0,50,0.00,,,0.01,Wunderground v.1.15,2013-06-15 00:40:00,
2013-06-14 20:42:00,77.2,57.1,29.88,North,360,6.0,6.0,50,0.00,,,0.01,Wunderground v.1.15,2013-06-15 00:42:00,
2013-06-14 20:44:00,77.2,57.1,29.88,North,360,7.0,7.0,50,0.00,,,0.01,Wunderground v.1.15,2013-06-15 00:44:00,
2013-06-14 20:48:00,77.1,57.0,29.89,North,360,6.0,10.0,50,0.00,,,0.01,Wunderground v.1.15,2013-06-15 00:48:00,
2013-06-14 20:50:00,77.0,57.5,29.89,North,360,5.0,5.0,51,0.00,,,0.01,Wunderground v.1.15,2013-06-15 00:50:00,
2013-06-14 20:52:00,77.0,57.5,29.89,North,360,4.0,6.0,51,0.00,,,0.01,Wunderground v.1.15,2013-06-15 00:52:00,
2013-06-14 20:56:00,76.9,57.4,29.90,North,360,5.0,6.0,51,0.00,,,0.01,Wunderground v.1.15,2013-06-15 00:56:00,
2013-06-14 20:58:00,77.0,57.5,29.90,North,360,4.0,6.0,51,0.00,,,0.01,Wunderground v.1.15,2013-06-15 00:58:00,
2013-06-14 21:02:00,76.8,57.3,29.90,North,360,4.0,6.0,51,0.00,,,0.01,Wunderground v.1.15,2013-06-15 01:02:00,
2013-06-14 21:04:00,76.6,57.7,29.90,North,360,4.0,6.0,52,0.00,,,0.01,Wunderground v.1.15,2013-06-15 01:04:00,
2013-06-14 21:06:00,76.6,57.7,29.90,North,360,3.0,6.0,52,0.00,,,0.01,Wunderground v.1.15,2013-06-15 01:06:00,
2013-06-14 21:12:00,76.5,57.6,29.90,North,360,3.0,4.0,52,0.00,,,0.01,Wunderground v.1.15,2013-06-15 01:12:00,
2013-06-14 21:14:00,76.4,57.5,29.90,North,360,3.0,8.0,52,0.00,,,0.01,Wunderground v.1.15,2013-06-15 01:14:00,
2013-06-14 21:18:00,76.3,57.4,29.90,North,360,2.0,8.0,52,0.00,,,0.01,Wunderground v.1.15,2013-06-15 01:18:00,
2013-06-14 21:20:00,76.3,57.4,29.90,North,360,3.0,4.0,52,0.00,,,0.01,Wunderground v.1.15,2013-06-15 01:20:00,
2013-06-14 21:22:00,76.2,57.8,29.90,North,360,3.0,4.0,53,0.00,,,0.01,Wunderground v.1.15,2013-06-15 01:22:00,
2013-06-14 21:24:00,76.1,57.7,29.91,North,360,3.0,4.0,53,0.00,,,0.01,Wunderground v.1.15,2013-06-15 01:24:00,
2013-06-14 21:26:00,76.0,57.6,29.90,North,360,3.0,4.0,53,0.00,,,0.01,Wunderground v.1.15,2013-06-15 01:26:00,
2013-06-14 21:30:00,75.9,57.5,29.91,North,360,3.0,3.0,53,0.00,,,0.01,Wunderground v.1.15,2013-06-15 01:30:00,
2013-06-14 21:32:00,75.9,57.5,29.91,North,360,3.0,4.0,53,0.00,,,0.01,Wunderground v.1.15,2013-06-15 01:32:00,
2013-06-14 21:34:00,75.9,57.5,29.91,North,360,2.0,5.0,53,0.00,,,0.01,Wunderground v.1.15,2013-06-15 01:34:00,
2013-06-14 21:36:00,75.9,57.5,29.92,North,360,3.0,5.0,53,0.00,,,0.01,Wunderground v.1.15,2013-06-15 01:36:00,
2013-06-14 21:40:00,75.9,57.5,29.92,North,360,2.0,3.0,53,0.00,,,0.01,Wunderground v.1.15,2013-06-15 01:40:00,
2013-06-14 21:42:00,75.8,58.0,29.92,North,360,2.0,3.0,54,0.00,,,0.01,Wunderground v.1.15,2013-06-15 01:42:00,
2013-06-14 21:44:00,75.8,57.4,29.92,North,360,2.0,3.0,53,0.00,,,0.01,Wunderground v.1.15,2013-06-15 01:44:00,
2013-06-14 21:46:00,75.8,57.4,29.92,North,360,2.0,3.0,53,0.00,,,0.01,Wunderground v.1.15,2013-06-15 01:46:00,
2013-06-14 21:50:00,75.7,57.4,29.92,North,360,3.0,3.0,53,0.00,,,0.01,Wunderground v.1.15,2013-06-15 01:50:00,
2013-06-14 21:52:00,75.7,57.4,29.92,North,360,3.0,5.0,53,0.00,,,0.01,Wunderground v.1.15,2013-06-15 01:52:00,
2013-06-14 21:56:00,75.6,57.3,29.92,North,360,4.0,5.0,53,0.00,,,0.01,Wunderground v.1.15,2013-06-15 01:56:00,
2013-06-14 21:58:00,75.6,57.8,29.92,North,360,3.0,5.0,54,0.00,,,0.01,Wunderground v.1.15,2013-06-15 01:58:00,
2013-06-14 22:02:00,75.6,57.8,29.92,North,360,3.0,4.0,54,0.00,,,0.01,Wunderground v.1.15,2013-06-15 02:02:00,
2013-06-14 22:04:00,75.6,57.8,29.92,North,360,2.0,4.0,54,0.00,,,0.01,Wunderground v.1.15,2013-06-15 02:04:00,
2013-06-14 22:06:00,75.6,57.8,29.92,North,360,2.0,4.0,54,0.00,,,0.01,Wunderground v.1.15,2013-06-15 02:06:00,
2013-06-14 22:08:00,75.6,57.8,29.92,North,360,2.0,4.0,54,0.00,,,0.01,Wunderground v.1.15,2013-06-15 02:08:00,
2013-06-14 22:12:00,75.5,57.7,29.93,North,360,2.0,3.0,54,0.00,,,0.01,Wunderground v.1.15,2013-06-15 02:12:00,
2013-06-14 22:14:00,75.5,57.7,29.93,North,360,3.0,3.0,54,0.00,,,0.01,Wunderground v.1.15,2013-06-15 02:14:00,
2013-06-14 22:16:00,75.5,57.7,29.93,North,360,3.0,5.0,54,0.00,,,0.01,Wunderground v.1.15,2013-06-15 02:16:00,
2013-06-14 22:18:00,75.5,57.7,29.93,North,360,3.0,12.0,54,0.00,,,0.01,Wunderground v.1.15,2013-06-15 02:18:00,
2013-06-14 22:22:00,75.3,57.5,29.93,North,360,4.0,6.0,54,0.00,,,0.01,Wunderground v.1.15,2013-06-15 02:22:00,
2013-06-14 22:24:00,75.3,57.5,29.94,North,360,4.0,8.0,54,0.00,,,0.01,Wunderground v.1.15,2013-06-15 02:24:00,
2013-06-14 22:26:00,75.2,57.4,29.94,North,360,5.0,8.0,54,0.00,,,0.01,Wunderground v.1.15,2013-06-15 02:26:00,
2013-06-14 22:30:00,75.1,57.8,29.94,North,360,4.0,4.0,55,0.00,,,0.01,Wunderground v.1.15,2013-06-15 02:30:00,
2013-06-14 22:32:00,75.0,57.7,29.94,North,360,4.0,4.0,55,0.00,,,0.01,Wunderground v.1.15,2013-06-15 02:32:00,
2013-06-14 22:34:00,74.9,57.6,29.94,North,360,3.0,4.0,55,0.00,,,0.01,Wunderground v.1.15,2013-06-15 02:34:00,
2013-06-14 22:38:00,74.7,58.0,29.94,North,360,3.0,7.0,56,0.00,,,0.01,Wunderground v.1.15,2013-06-15 02:38:00,
2013-06-14 22:40:00,74.6,57.9,29.94,North,360,3.0,4.0,56,0.00,,,0.01,Wunderground v.1.15,2013-06-15 02:40:00,
2013-06-14 22:46:00,74.4,58.2,29.94,North,360,3.0,4.0,57,0.00,,,0.01,Wunderground v.1.15,2013-06-15 02:46:00,
2013-06-14 22:52:00,74.2,58.0,29.93,North,360,2.0,4.0,57,0.00,,,0.01,Wunderground v.1.15,2013-06-15 02:52:00,
2013-06-14 22:54:00,74.1,57.9,29.93,North,360,2.0,4.0,57,0.00,,,0.01,Wunderground v.1.15,2013-06-15 02:54:00,
2013-06-14 22:56:00,74.1,57.9,29.93,North,360,2.0,4.0,57,0.00,,,0.01,Wunderground v.1.15,2013-06-15 02:56:00,
2013-06-14 22:58:00,74.1,57.9,29.94,North,360,2.0,7.0,57,0.00,,,0.01,Wunderground v.1.15,2013-06-15 02:58:00,
2013-06-14 23:00:00,74.2,58.0,29.94,North,360,3.0,3.0,57,0.00,,,0.01,Wunderground v.1.15,2013-06-15 03:00:00,
2013-06-14 23:04:00,74.3,58.1,29.94,North,360,3.0,4.0,57,0.00,,,0.01,Wunderground v.1.15,2013-06-15 03:04:00,
2013-06-14 23:06:00,74.3,58.1,29.94,North,360,3.0,4.0,57,0.00,,,0.01,Wunderground v.1.15,2013-06-15 03:06:00,
2013-06-14 23:10:00,74.1,57.9,29.94,North,360,3.0,3.0,57,0.00,,,0.01,Wunderground v.1.15,2013-06-15 03:10:00,
2013-06-14 23:12:00,73.9,57.7,29.94,North,360,3.0,3.0,57,0.00,,,0.01,Wunderground v.1.15,2013-06-15 03:12:00,
2013-06-14 23:14:00,73.9,58.2,29.94,North,360,3.0,3.0,58,0.00,,,0.01,Wunderground v.1.15,2013-06-15 03:14:00,
2013-06-14 23:18:00,73.7,58.0,29.94,North,360,3.0,3.0,58,0.00,,,0.01,Wunderground v.1.15,2013-06-15 03:18:00,
2013-06-14 23:22:00,73.7,58.0,29.95,North,360,3.0,4.0,58,0.00,,,0.01,Wunderground v.1.15,2013-06-15 03:22:00,
2013-06-14 23:26:00,73.5,58.3,29.95,North,360,3.0,6.0,59,0.00,,,0.01,Wunderground v.1.15,2013-06-15 03:26:00,
2013-06-14 23:28:00,73.3,58.1,29.95,North,360,3.0,6.0,59,0.00,,,0.01,Wunderground v.1.15,2013-06-15 03:28:00,
2013-06-14 23:32:00,73.2,58.5,29.95,North,360,3.0,5.0,60,0.00,,,0.01,Wunderground v.1.15,2013-06-15 03:32:00,
2013-06-14 23:34:00,73.1,58.4,29.95,North,360,3.0,5.0,60,0.00,,,0.01,Wunderground v.1.15,2013-06-15 03:34:00,
2013-06-14 23:36:00,73.0,58.3,29.95,North,360,4.0,5.0,60,0.00,,,0.01,Wunderground v.1.15,2013-06-15 03:36:00,
2013-06-14 23:38:00,73.0,58.3,29.95,North,360,4.0,5.0,60,0.00,,,0.01,Wunderground v.1.15,2013-06-15 03:38:00,
2013-06-14 23:42:00,72.8,58.6,29.95,North,360,4.0,4.0,61,0.00,,,0.01,Wunderground v.1.15,2013-06-15 03:42:00,
2013-06-14 23:44:00,72.8,58.6,29.96,North,360,4.0,5.0,61,0.00,,,0.01,Wunderground v.1.15,2013-06-15 03:44:00,
2013-06-14 23:46:00,72.7,58.5,29.95,North,360,4.0,6.0,61,0.00,,,0.01,Wunderground v.1.15,2013-06-15 03:46:00,
2013-06-14 23:50:00,72.5,58.3,29.95,North,360,5.0,5.0,61,0.00,,,0.01,Wunderground v.1.15,2013-06-15 03:50:00,
2013-06-14 23:52:00,72.5,58.3,29.96,North,360,5.0,5.0,61,0.00,,,0.01,Wunderground v.1.15,2013-06-15 03:52:00,
2013-06-14 23:56:00,72.5,58.3,29.95,North,360,4.0,5.0,61,0.00,,,0.01,Wunderground v.1.15,2013-06-15 03:56:00,